Weather History for Northeast Philadelphia, PA

Change the Weather History Date:

Sunday, April 21, 2013

  Actual Average Record
Temperature  
Mean Temperature 45 °F -  
Max Temperature 54 °F 63 °F 79 °F (2012)
Min Temperature 36 °F 41 °F 33 °F (1997)
Degree Days  
Heating Degree Days 20    
Growing Degree Days 0 (Base 50)    
Moisture  
Dew Point 23 °F    
Average Humidity 42    
Maximum Humidity 57    
Minimum Humidity 30    
Precipitation  
Precipitation 0.00 in - - ()
Sea Level Pressure  
Sea Level Pressure 30.54 in    
Wind  
Wind Speed 10 mph (NE)    
Max Wind Speed 15 mph    
Max Gust Speed 24 mph    
Visibility 10 miles    
Events      
Averages and records for this station are not official NWS values.
T = Trace of Precipitation, MM = Missing Value Source: NWS Daily Summary

Daily Weather History Graph

Daily Weather History Graph

Search for Another Location

Airport:

Trip Planner

Search our weather history database for the weather conditions in past years. The results will help you decide how hot, cold, wet, or windy it might be!

Date:

Astronomy

Apr. 21, 2013 Rise Set
Actual Time 6:13 AM EDT 7:45 PM EDT
Civil Twilight 5:44 AM EDT 8:13 PM EDT
Nautical Twilight 5:10 AM EDT 8:48 PM EDT
Astronomical Twilight 4:33 AM EDT 9:24 PM EDT
Moon 3:27 PM EDT (4/21) 3:33 AM EDT (4/21)
Length of Visible Light 14h 29m
Length of Day
13h 31m
Waxing Gibbous, 79% of the Moon is Illuminated
Apr 21
Waxing Gibbous
Apr 25
Full
May 2
Last Quarter
May 9
New
May 18
First Quarter

Hourly Weather History & Observations

Time (EDT) Temp. Windchill Dew Point Humidity Pressure Visibility Wind Dir Wind Speed Gust Speed Precip Events Conditions
12:54 AM 45.0 °F 38.2 °F 21.9 °F 40% 30.35 in 10.0 mi NW 15.0 mph 19.6 mph N/A   Clear
1:54 AM 42.1 °F 34.5 °F 21.0 °F 43% 30.38 in 10.0 mi North 15.0 mph 24.2 mph N/A   Clear
2:54 AM 39.9 °F 32.9 °F 19.9 °F 45% 30.41 in 10.0 mi North 11.5 mph - N/A   Clear
3:54 AM 37.9 °F 30.9 °F 19.0 °F 47% 30.43 in 10.0 mi North 10.4 mph - N/A   Clear
4:54 AM 36.0 °F 31.1 °F 19.0 °F 50% 30.46 in 10.0 mi North 5.8 mph - N/A   Clear
5:54 AM 36.0 °F 30.3 °F 18.0 °F 48% 30.49 in 10.0 mi North 6.9 mph - N/A   Clear
6:54 AM 36.0 °F 30.3 °F 19.9 °F 52% 30.53 in 10.0 mi North 6.9 mph - N/A   Clear
7:54 AM 39.0 °F 30.6 °F 19.9 °F 46% 30.56 in 10.0 mi North 15.0 mph 18.4 mph N/A   Clear
8:54 AM 41.0 °F 33.1 °F 19.0 °F 41% 30.58 in 10.0 mi North 15.0 mph 21.9 mph N/A   Clear
9:54 AM 44.1 °F 38.6 °F 21.0 °F 40% 30.60 in 10.0 mi North 10.4 mph 17.3 mph N/A   Clear
10:54 AM 45.0 °F 40.6 °F 21.9 °F 40% 30.61 in 10.0 mi NE 8.1 mph - N/A   Clear
11:54 AM 48.0 °F - 24.1 °F 39% 30.60 in 10.0 mi North 11.5 mph - N/A   Clear
12:54 PM 48.9 °F - 24.1 °F 38% 30.59 in - Variable 3.5 mph - N/A   Clear
1:54 PM 50.0 °F - 24.1 °F 36% 30.58 in - Variable 4.6 mph - N/A   Clear
2:54 PM 52.0 °F - 24.1 °F 34% 30.56 in - East 8.1 mph - N/A   Clear
3:54 PM 53.1 °F - 23.0 °F 31% 30.56 in 10.0 mi NE 5.8 mph - N/A   Clear
4:54 PM 54.0 °F - 23.0 °F 30% 30.56 in 10.0 mi Calm Calm - N/A   Clear
5:54 PM 52.0 °F - 23.0 °F 32% 30.56 in 10.0 mi SE 8.1 mph - N/A   Clear
6:54 PM 51.1 °F - 23.0 °F 33% 30.56 in 10.0 mi ESE 5.8 mph - N/A   Clear
7:54 PM 48.9 °F - 26.1 °F 41% 30.58 in 10.0 mi SE 8.1 mph - N/A   Clear
8:54 PM 46.9 °F - 28.0 °F 48% 30.61 in 10.0 mi SSE 6.9 mph - N/A   Clear
9:54 PM 44.1 °F 41.5 °F 26.1 °F 49% 30.63 in 10.0 mi SE 4.6 mph - N/A   Clear
10:54 PM 43.0 °F 41.3 °F 26.1 °F 51% 30.63 in 10.0 mi South 3.5 mph - N/A   Clear
11:54 PM 41.0 °F - 27.0 °F 57% 30.63 in 10.0 mi Calm Calm - N/A   Clear